OBJECT P, 61748

Orbit data source: Space-Track

You're viewing an Uncataloged Satellite

Recently launched and/or uncataloged satellites may have evolving metadata. Metadata may include but not limited to: Owner, Maufacturer, Bus, Motor, and Mission.

OBJECT P, 61748 is a satellite in SSO that was launched on Mon, 04 Nov 2024 UTC via a SOYUZ-2-1B launch vehicle from the Vostochny Cosmodrome (VOSTO). Unknown objects in Earth's orbit typically refer to objects detected orbiting the Earth but have not yet been identified or cataloged. These objects could be anything from previously untracked satellites, spent rocket stages, debris from satellite collisions, or even natural meteoroids temporarily captured by Earth's gravity.

Loading next visibility...
Identifier
61748, 2024-199P
Orbit
SSO
Country
Flag of TBDTBD
Related business
Manufacturer
Sputniks
Mission
Operational Commercial Communications
Bus & Motor
CUBESAT 3U?, Unknown motor
Mass
3 kg wet, 3 kg dry
Launch date (UTC)
2024-11-04 (1 year ago)
Launch vehicle
SOYUZ-2-1B
Launch site
Vostochny Cosmodrome (VOSTO)
Object type
Unknown
Shape & HBR
Box, 0.1 m
Radar Cross Section
0.035 m², Small (<0.1 m²)

Expand to show TLE details & history
Last TLE update: 11 hours ago

TLE from 11 hours ago
0 OBJECT P
1 61748U 24199P   26061.77530148  .00053999  00000-0  80922-3 0  9990
2 61748  97.3095 297.7727 0005142 319.1557  40.9311 15.54766900121189
Epoch: 2026-03-02T18:36Z
TLE epoch observation values (Epoch: 2026-03-02T18:36:26.047Z)
Latitude
-0.00007°
Longitude
-141.89969°
Altitude
403.336 km
Speed
7.67 km/s
True Right ascension
19h 51m 05s
True Declination
0° 00' 00"
Sunlit
Object was in daylight at epoch
Visualization orbit readout
Latitude
Unknown
Longitude
Unknown
Altitude
Unknown
Speed
Unknown
Apparent Right ascension
Unknown
Apparent Declination
Unknown
Sunlit
N/A
Visualization observer readout
Local Sidereal Time
08:58:47
Azimuth
Unknown
Elevation
Unknown
Doppler factor
Unknown
Orbital elements
Apogee altitude
403.231 km
Perigee altitude
396.261 km
Semi-major axis
6,777.883 km
Eccentricity
0.00051
Inclination
97.3095°
RAAN
297.7727°
Arg. of periapsis
319.1557°
True anomaly
40.96972°
Mean anomaly
40.9311°
Eccentric anomaly
40.95041°
Mean motion
3.88957 °/min
Orbital period
92.56 mins
BSTAR
0.00080922
Loading maneuver chart data...
Computing Atmospheric mass density...
Loading historical data...
Loading historical data...
Loading historical data...
Loading historical data...
Loading historical data...
Loading historical data...
Loading historical data...

Documentation

Showing up to 5 results
|